Location: Three Guys Observatory
(38.6418°N, 87.1521°W)
Time: 20:34:12
(UTC-04:00)

ISS - Visible Passes

Search period start: 28 July 2014 00:00
Search period end: 07 August 2014 00:00
Orbit: 411 x 420 km, 51.6° (Epoch: 28 July)

Date Brightness Start Highest point End Pass type
(mag) Time Alt. Az. Time Alt. Az. Time Alt. Az.
28 Jul 0.0 02:58:34 13° N 02:58:34 13° N 02:59:29 10° NNE visible
28 Jul -0.3 06:11:01 10° NNW 06:13:20 17° NNE 06:15:39 10° ENE visible
29 Jul -0.1 05:22:34 10° NNW 05:24:17 13° NNE 05:25:59 10° NE visible
30 Jul 0.2 02:57:03 10° N 02:57:11 10° N 02:57:29 10° N visible
30 Jul 0.1 04:34:14 10° N 04:35:10 11° NNE 04:36:06 10° NNE visible
30 Jul -1.3 06:09:38 10° NW 06:12:43 32° NNE 06:15:47 10° E visible
31 Jul -0.6 05:21:03 10° NNW 05:23:45 22° NNE 05:26:27 10° E visible
01 Aug -0.1 04:32:31 10° NNW 04:34:43 16° NNE 04:36:55 10° ENE visible
01 Aug -3.2 06:08:29 10° NW 06:11:52 85° NE 06:15:13 10° SE visible
01 Aug -1.0 22:49:41 10° SW 22:50:18 15° SW 22:50:18 15° SW visible
02 Aug 0.1 03:44:04 10° NNW 03:45:38 13° NNE 03:47:13 10° NE visible
02 Aug -2.2 05:19:44 10° NW 05:23:00 47° NE 05:26:16 10° ESE visible
02 Aug -2.5 22:01:14 10° SSW 22:04:12 31° SE 22:07:12 10° ENE visible
02 Aug -1.2 23:37:58 10° W 23:40:55 29° NNW 23:41:13 28° NNW visible
03 Aug 0.3 02:56:21 11° N 02:56:30 11° N 02:57:13 10° NNE visible
03 Aug -1.2 04:31:04 10° NNW 04:34:05 29° NNE 04:37:05 10° E visible
03 Aug -2.4 06:07:47 10° WNW 06:10:47 30° SW 06:13:46 10° SSE visible
03 Aug -2.2 22:48:46 10° WSW 22:51:59 46° NW 22:55:13 10° NE visible
04 Aug 0.1 00:27:52 10° NW 00:29:22 12° NNW 00:30:05 12° N visible
04 Aug -0.4 03:46:08 18° NE 03:46:08 18° NE 03:47:42 10° ENE visible
04 Aug -3.3 05:19:19 14° WNW 05:22:02 57° SW 05:25:19 10° SE visible
04 Aug -3.2 21:59:47 10° SW 22:03:06 82° NW 22:06:27 10° NE visible
04 Aug -0.2 23:38:08 10° WNW 23:40:16 16° NNW 23:42:24 10° NNE visible
05 Aug -0.6 22:48:34 10° WNW 22:51:12 21° NNW 22:53:51 10° NNE visible
06 Aug -1.3 21:59:12 10° W 22:02:12 31° NNW 22:05:14 10° NE visible
06 Aug 0.2 23:38:57 10° NNW 23:39:45 11° NNW 23:40:34 10° N visible
